Location: Bernay
(48.6766°N, 2.9386°E)
Time: 20:43:23
(UTC+00:00)

Cosmos 2237 Rocket - Pass Details

Date: 12 January 2026
Orbit: 834 x 849 km, 71.0° (Epoch: 17 February)

Event Time Altitude Azimuth Distance (km) Brightness Sun altitude
Rises 17:46:18 0° 257° (WSW) 3,377 7.3 -14.4°
Reaches altitude 10° 17:49:25 10° 274° (W) 2,447 5.8 -14.9°
Maximum altitude 17:53:27 20° 320° (NW) 1,855 4.3 -15.5°
Drops below altitude 10° 17:57:30 10° 7° (N) 2,459 4.4 -16.1°
Enters shadow 17:59:16 - 18° (NNE) 2,957 4.7 -16.4°
